FENGYUN 1C DEB, 30317

Orbit data source: Space-Track

FENGYUN 1C DEB, 30317 is space debris in SSO originally from a launch on Mon, 10 May 1999 UTC launched from the Taiyaun Space Center, China (TSC). Fengyun 1C debris stems from the Chinese weather satellite Fengyun-1C, which was intentionally destroyed by a Chinese anti-satellite missile in 2007. This event dramatically increased the amount of space debris, with thousands of trackable fragments posing hazards to satellites and human spaceflight. The Fengyun 1C debris cloud has become a focal point in discussions about space sustainability and the need for international regulations to prevent the creation of new debris.

Loading next visibility...
Identifier
30317, 1999-025AAE
Orbit
SSO
Last TLE update
1 day ago
Origin
Manufacturer
Unknown
Mission
Spacecraft
Bus & Motor
Unknown
Mass
Unknown
Launch date (UTC)
1999-05-10 (26 years ago)
Launch vehicle
Unknown
Launch site
Taiyaun Space Center, China (TSC)
Object type
Payload
Rocket body
Debris
Shape & HBR
Unknown
Radar Cross Section
Small (<0.1 m²)

Expand to show TLE details & history

TLE from 1 day ago
0 FENGYUN 1C DEB
1 30317U 99025AAE 25126.54349424  .00000154  00000-0  11784-3 0  9994
2 30317  98.7826 133.2944 0025325 173.1380 187.0140 14.06810106939179
Epoch: 2025-05-06T13:02Z
Definitive object data (Epoch: 2025-05-06T13:02:37.902Z)
Latitude
-0.00006°
Longitude
72.9953°
Altitude
891.426 km
Speed
7.397 km/s
True Right ascension
08h 53m 10s
True Declination
0° 00' 00"
Sunlit
Object was in daylight at TLE epoch
Visualization TLE readout
Latitude
-73.10824°
Longitude
104.4214°
Altitude
904.71 km
Speed
7.395 km/s
Apparent Right ascension
10h 31m 25s
Apparent Declination
-57° 34' 27"
Sunlit
Object is in daylight
Visualization observer readout
Local Sidereal Time
22:19:33
Azimuth
185.221° SSW
Elevation
-72.238°
Doppler factor
1
Orbital elements
Apogee altitude
885.837 km
Perigee altitude
849.138 km
Semi-major axis
7,245.625 km
Eccentricity
0.0025325
Inclination
98.7826°
RAAN
133.2944°
Arg. of periapsis
173.138°
True anomaly
186.97867°
Mean anomaly
187.014°
Eccentric anomaly
186.99633°
Mean motion
3.51908 °/min
BSTAR
0.00011784
Orbital period
102.3 mins
Loading maneuver chart data...
Loading SW <> Apogee altitude chart data...
Loading historical data...
Loading historical data...
Loading historical data...
Loading historical data...
Loading historical data...
Loading historical data...
Loading historical data...

FENGYUN 1C DEB Visibility forecast

Observer location: undefined°, undefined°

Span
Click to sort rows by Start time (UTC) header in descending order
Start Az.
Max El. time (UTC)
Max El. Az.
Max El.
End time (UTC)
End Az.
8 mins2025-05-07 23:19:18.682Z119.172° SE2025-05-07 23:23:18.682Z70.949° E24.585°2025-05-07 23:27:18.682Z15.979° NNE
9 mins2025-05-08 01:00:18.682Z197.233° SSW2025-05-08 01:04:18.682Z256.949° W33.317°2025-05-08 01:09:18.682Z329.57° NNW
9 mins2025-05-08 13:26:18.682Z10.34° NNE2025-05-08 13:30:18.682Z229.004° WSW44.019°2025-05-08 13:35:18.682Z198.907° SSW
|